Location: Aufkirchen
(47.9603°N, 11.3653°E)
Time: 09:53:36
(UTC+01:00)

Tiros 1 - Pass Details

Date: 05 December 2020
Orbit: 630 x 663 km, 48.4° (Epoch: 28 January)

Event Time Altitude Azimuth Distance (km) Brightness Sun altitude
Rises 11:59:49 0° 195° (SSW) 2,974 11.9 19.6°
Reaches altitude 10° 12:02:58 10° 174° (S) 2,070 12.1 19.6°
Maximum altitude 12:05:49 16° 137° (SE) 1,715 10.2 19.6°
Drops below altitude 10° 12:08:41 10° 100° (E) 2,079 9.9 19.6°
Sets 12:11:51 0° 79° (ENE) 2,995 10.4 19.6°
